Regional Weather Roundup
Issued by NWS

Home | Current Version | Previous Version | Text Only | Print | Product List | Glossary Off
Versions: 1 2 3 4 5 6 7 8 9 10 11 12 13 14 15 16 17 18 19 20 21 22 23 24 25 26 27 28 29 30 31 32 33 34 35 36 37 38 39 40 41 42 43 44 45 46 47 48 49 50

000
ASUS43 KTOP 200959
RWRKS

WEATHER ROUNDUP FOR KANSAS
NATIONAL WEATHER SERVICE GOODLAND KS
500 AM CDT SAT SEP 20 2014

NOTE:  "FAIR" INDICATES FEW OR NO CLOUDS BELOW 12,000 FEET WITH NO
SIGNIFICANT WEATHER AND/OR OBSTRUCTIONS TO VISIBILITY.

KSZ001>006-013>018-027>032-041>047-201100-
NORTHWEST KANSAS

CITY           SKY/WX    TMP DP  RH WIND       PRES   REMARKS
GOODLAND       PTCLDY    65  61  87 SW10      29.98R
HAYS           CLEAR     66  57  72 SW13      29.93F
HILL CITY      PTCLDY    67  59  75 SW8       29.91F
RUSSELL        CLEAR     69  61  75 S15       29.91F
$$

KSZ061>065-074>080-084>089-201100-
SOUTHWEST KANSAS

CITY           SKY/WX    TMP DP  RH WIND       PRES   REMARKS
DODGE CITY     CLEAR     66  60  81 S13       29.97F
ELKHART          N/A     66  61  84 SW8         N/A
GARDEN CITY    CLEAR     62  60  93 S9        29.97F
GREAT BEND     CLEAR     68  61  77 S12       29.95S
LIBERAL        CLEAR     63  57  82 S7        30.01F
$$

KSZ066>073-081>083-090>101-201100-
SOUTHEAST KANSAS

CITY           SKY/WX    TMP DP  RH WIND       PRES   REMARKS
CHANUTE        CLEAR     67  67 100 S9        29.97S FOG
HUTCHINSON     CLEAR     68  64  87 S7        29.96S
NEWTON         CLEAR     70  63  78 SW13      29.99R
PARSONS        PTCLDY    67  66  97 S5        29.99S FOG
WICHITA INTL   CLEAR     69  66  90 S8        29.96F
WICHITA JABRA  CLEAR     69  67  93 S12       29.96F
WINFIELD       PTCLDY    69  68  96 S7        29.98F
$$

KSZ007>012-019>026-033>040-048>060-102>105-201100-
NORTHEAST KANSAS

CITY           SKY/WX    TMP DP  RH WIND       PRES   REMARKS
CONCORDIA      CLEAR     69  64  84 S15       29.89F
EMPORIA        CLEAR     69  68  96 S10       29.95S
LAWRENCE       CLEAR     68  66  93 S10       29.93S FOG
MANHATTAN      CLEAR     70  68  93 SW9       29.91F FOG
OLATHE IND     CLEAR     67  66  97 S12       29.95S FOG
OLATHE EXE     PTCLDY    66  65  96 SW7       29.94S FOG
SALINA         CLEAR     70  65  84 S10       29.92F
TOPEKA BILLARD CLEAR     70  68  93 SW7       29.92F FOG
TOPEKA FORBES  CLEAR     68  66  93 S10       29.93F FOG
$$



USA.gov is the U.S. government's official web portal to all federal, state and local government web resources and services.